Wind_Speed
36 37 37 37 38 39 39 39 39 39 39 39 39 39 39 39 38 37 37 36 36 35 35 34 34 34 34 33 33 33 33 32 32 32 31 31 31 31 31 31 31 31 31
37 37 38 38 38 39 40 41 41 41 41 40 40 40 41 40 40 39 38 38 38 37 37 36 35 35 35 35 34 34 34 34 33 33 33 33 32 32 32 32 32 32 32
37 37 38 38 38 39 39 41 41 42 42 42 41 42 42 42 42 41 40 39 40 39 38 38 37 37 37 36 36 36 35 35 36 35 35 34 34 34 34 34 34 35 34
36 37 37 38 39 39 40 41 42 42 43 44 43 43 44 43 43 43 42 41 41 41 40 39 39 39 39 38 38 38 37 37 37 37 37 37 37 36 36 36 36 37 37
35 37 37 38 39 40 40 42 42 44 44 44 45 44 45 45 45 44 43 42 42 42 42 41 40 40 41 40 40 40 40 39 39 38 38 38 38 38 38 38 38 38 38
35 36 37 38 39 40 41 42 43 43 44 44 45 46 46 47 47 46 46 44 43 43 43 42 41 42 41 41 41 42 42 42 41 40 40 40 40 40 40 40 40 40 40
36 36 36 37 38 39 41 42 42 43 44 45 45 45 46 46 47 47 47 46 45 45 44 44 43 43 43 43 43 43 44 43 42 42 41 41 41 41 41 41 41 41 41
37 37 36 37 38 39 41 42 43 43 44 44 44 45 45 46 47 48 48 47 47 46 46 46 45 45 44 45 45 45 45 45 44 44 43 43 42 43 43 42 42 42 42
37 37 36 37 38 39 41 42 43 43 43 44 45 45 45 45 46 47 48 48 48 47 47 47 48 46 46 47 47 47 47 46 45 45 45 45 44 44 44 44 44 44 43
37 37 36 37 37 38 39 41 43 43 43 44 44 45 46 46 46 47 47 47 47 47 47 48 48 48 47 47 47 48 48 47 47 48 47 46 45 44 45 46 46 46 46
35 36 36 37 38 38 39 40 42 43 44 44 44 45 46 46 47 47 46 46 46 46 47 48 48 48 48 47 47 47 48 48 48 48 48 47 48 47 47 47 48 48 48
36 36 37 36 37 38 39 41 42 43 44 45 45 45 45 46 47 47 46 46 46 47 47 47 48 48 48 48 48 49 49 49 48 48 48 48 49 49 49 49 49 49 49
36 36 37 37 37 37 38 39 40 42 43 44 45 45 46 46 47 47 47 46 47 47 47 47 48 49 49 49 49 50 49 49 49 49 49 49 49 49 49 50 50 50 50
36 37 37 36 36 37 38 38 39 40 41 42 44 44 44 45 46 47 47 46 47 48 48 47 48 48 48 49 50 50 49 49 50 50 50 50 50 50 50 50 50 50 51
35 37 37 37 37 37 38 38 39 39 40 41 42 42 43 44 45 46 48 48 47 47 47 48 49 49 49 49 49 49 50 50 50 51 51 51 50 51 51 51 51 52 52
34 35 36 36 37 38 38 39 39 39 40 41 42 43 43 43 44 44 45 47 48 47 47 48 49 49 49 49 49 50 50 50 50 51 50 50 51 51 52 52 53 53 54
32 33 34 34 35 36 37 38 38 38 40 41 43 44 44 44 44 44 44 45 46 47 47 47 48 48 49 49 50 50 50 50 51 51 51 51 51 52 52 53 54 55 55
31 31 31 32 33 34 36 36 37 37 38 39 41 43 44 45 44 44 44 43 44 45 46 46 47 48 49 49 49 50 50 51 51 52 52 52 53 53 53 54 54 54 55
31 31 30 30 31 33 35 36 36 37 38 39 40 41 42 43 44 43 42 42 43 43 44 45 47 48 49 49 49 50 50 50 51 51 52 52 52 52 53 53 53 54 54
30 30 29 29 30 32 33 35 35 36 37 38 39 40 40 41 42 42 41 41 41 43 44 45 47 48 48 49 49 50 50 50 50 51 51 51 51 52 52 52 53 53 53
28 28 28 29 29 31 32 33 33 35 35 36 37 37 38 39 40 41 41 42 42 42 43 45 46 47 47 48 49 49 49 50 50 50 50 50 50 51 51 51 52 52 52
28 28 28 28 28 30 32 33 33 35 35 35 36 36 37 39 40 41 42 42 42 43 43 43 44 44 44 46 47 48 49 49 49 49 49 49 49 50 50 50 51 51 52
28 29 29 28 28 29 31 32 33 34 34 35 35 35 36 37 38 40 41 42 43 43 43 43 43 43 44 45 45 46 47 48 48 48 49 49 49 49 50 50 51 51 51
29 29 30 29 29 30 31 31 32 33 33 35 36 36 36 36 37 39 40 41 42 42 42 43 43 43 43 44 44 45 45 46 47 47 47 48 48 49 50 50 50 50 50
28 28 29 29 29 29 30 30 31 32 32 34 36 37 37 37 38 38 39 40 41 41 42 42 42 43 42 42 43 43 44 44 44 45 46 47 47 48 48 48 49 49 49
28 28 28 29 29 29 30 30 30 31 31 33 34 35 37 38 39 39 40 40 40 41 41 41 42 42 42 42 42 42 43 43 44 44 45 45 46 46 46 47 47 47 47
Wind_Direction
251 250 249 248 247 245 243 243 243 244 244 244 243 244 244 244 245 245 247 248 250 251 253 255 255 255 256 257 257 256 257 258 258 259 260 262 262 262 263 264 264 265 265
251 250 250 249 247 244 243 243 243 243 244 245 245 245 245 245 246 246 247 249 250 252 253 255 255 256 256 256 256 256 257 257 258 260 260 261 262 263 263 264 265 266 266
250 250 250 249 246 244 244 243 243 244 245 246 246 245 245 245 246 246 248 249 250 252 253 254 255 256 255 255 255 255 256 257 259 260 261 261 261 263 264 264 265 266 266
251 250 250 249 248 246 245 243 244 245 246 246 246 246 245 245 246 247 248 249 250 251 252 253 254 254 255 255 255 256 256 258 260 261 261 262 262 263 264 265 266 266 267
252 251 251 250 250 248 246 245 245 246 246 247 247 247 247 245 246 247 248 249 250 251 252 253 253 254 255 256 257 258 257 258 260 261 262 263 263 264 265 266 267 267 268
254 253 253 252 251 250 248 247 246 247 247 248 248 247 247 246 246 246 248 250 251 251 253 252 253 254 255 256 257 258 259 260 261 262 263 264 264 264 265 266 267 268 269
256 255 254 254 253 252 251 249 248 248 248 248 247 246 246 246 246 246 247 249 251 252 253 253 254 255 256 257 258 259 260 261 262 262 263 264 265 266 266 266 267 268 269
258 256 256 256 255 254 252 251 249 248 248 248 248 247 247 247 247 247 247 249 251 252 254 254 255 256 256 257 258 259 260 261 262 263 263 264 265 266 266 267 267 267 269
261 259 258 257 256 255 253 251 249 248 247 247 247 247 249 248 248 247 247 249 250 252 254 255 256 256 257 258 259 259 260 261 262 262 263 264 265 266 267 268 268 269 268
262 260 258 257 256 254 253 251 249 248 248 248 247 248 249 248 248 248 249 250 251 252 254 255 256 256 257 258 259 259 260 261 262 263 264 264 265 267 267 267 267 268 269
262 261 259 258 257 255 253 252 251 250 249 249 249 248 248 248 248 249 250 252 253 254 256 256 256 256 257 258 259 260 261 262 263 264 264 265 265 267 268 268 268 268 269
262 262 260 259 257 255 253 252 252 251 250 250 251 250 249 249 249 249 251 253 254 255 257 257 257 257 257 258 259 260 261 262 263 263 264 264 266 267 268 268 268 269 270
264 263 261 259 256 254 253 252 252 252 251 251 252 253 252 250 250 251 252 254 255 255 256 257 258 257 257 258 259 261 261 263 264 264 265 265 266 268 269 269 269 269 269
266 265 263 261 257 255 253 253 253 253 252 252 253 253 252 251 252 253 254 255 256 255 256 257 258 258 259 259 260 261 262 263 264 265 266 266 267 268 269 269 269 269 270
269 266 264 262 258 256 255 254 254 253 253 253 252 252 252 254 255 255 255 255 257 257 257 257 259 259 260 261 261 262 262 264 265 265 266 266 267 268 269 269 269 269 270
269 267 265 262 258 257 255 255 254 253 253 253 252 252 252 254 255 256 257 256 257 257 258 258 259 259 260 261 262 263 263 264 265 266 266 266 267 267 267 268 268 269 270
270 268 265 263 258 256 254 253 253 254 254 253 253 252 252 254 256 257 258 258 258 258 259 259 259 259 260 261 262 264 265 265 266 266 266 266 267 267 267 267 268 269 269
271 269 267 262 259 257 254 253 253 255 255 254 254 254 254 255 256 258 258 259 259 259 259 260 260 260 260 261 263 264 265 266 267 267 267 267 267 267 267 267 268 269 270
271 270 267 264 260 258 256 254 255 255 255 255 255 255 256 256 257 258 258 259 259 260 260 261 261 260 261 262 263 264 265 266 267 267 267 268 268 268 268 268 268 269 270
272 270 268 266 263 260 257 255 256 256 256 256 256 256 257 257 258 258 258 259 259 260 261 262 262 261 262 263 264 265 265 267 267 267 267 267 267 268 268 268 269 269 269
271 270 269 267 264 262 260 258 258 257 257 257 257 259 259 258 259 259 259 259 260 261 262 263 264 263 263 264 265 265 266 267 267 268 268 268 268 268 268 269 269 269 269
273 271 271 268 266 265 263 262 261 259 259 259 259 260 260 260 259 260 261 261 262 262 263 264 264 265 265 265 266 266 266 267 268 268 268 268 268 268 268 268 269 269 269
275 273 272 271 269 267 265 263 262 261 260 261 261 261 262 262 262 262 262 263 264 264 265 265 265 265 267 267 268 268 268 268 268 268 269 269 269 269 269 269 269 269 270
276 276 275 274 272 270 268 266 265 264 263 262 262 262 263 263 264 264 264 264 265 266 265 265 265 266 267 267 269 269 270 270 269 269 269 269 269 269 269 269 269 270 271
277 277 275 274 273 271 270 269 268 267 265 264 264 264 264 264 265 266 266 266 265 266 265 266 266 267 267 268 269 269 270 270 270 270 270 270 270 270 270 270 270 271 272
277 277 276 275 274 273 272 271 270 269 268 267 266 266 266 266 266 267 267 266 266 267 266 266 267 268 268 268 269 270 270 271 271 271 271 270 270 270 270 270 270 270 271
Height
5678 5680 5683 5686 5689 5692 5695 5699 5702 5704 5707 5710 5714 5717 5719 5722 5725 5727 5730 5732 5735 5737 5739 5741 5743 5744 5746 5747 5749 5750 5752 5753 5755 5756 5757 5758 5759 5760 5761 5762 5762 5763 5764
5669 5672 5674 5677 5680 5683 5686 5689 5692 5695 5698 5702 5705 5708 5711 5713 5716 5718 5721 5724 5726 5728 5731 5732 5734 5736 5738 5739 5741 5742 5744 5746 5747 5749 5749 5751 5752 5752 5753 5754 5755 5756 5756
5659 5662 5664 5667 5670 5674 5677 5680 5683 5686 5689 5692 5695 5698 5700 5704 5707 5709 5712 5714 5717 5719 5722 5724 5725 5727 5729 5731 5732 5734 5736 5738 5739 5740 5742 5743 5744 5745 5745 5746 5747 5747 5748
5649 5652 5655 5657 5661 5664 5666 5669 5673 5676 5679 5682 5685 5688 5690 5694 5697 5700 5702 5705 5707 5710 5712 5714 5716 5718 5720 5722 5724 5726 5728 5729 5731 5732 5733 5735 5736 5736 5737 5738 5738 5739 5739
5640 5643 5645 5648 5651 5653 5656 5659 5662 5665 5668 5671 5674 5677 5680 5683 5686 5690 5692 5695 5697 5700 5702 5704 5706 5708 5711 5713 5715 5716 5718 5720 5722 5723 5724 5725 5726 5727 5728 5729 5729 5729 5730
5631 5633 5635 5638 5640 5643 5646 5649 5652 5654 5657 5660 5663 5666 5669 5672 5675 5679 5682 5685 5687 5690 5692 5695 5697 5699 5701 5703 5705 5707 5709 5710 5712 5713 5714 5715 5716 5717 5718 5719 5719 5720 5720
5621 5623 5625 5628 5630 5633 5635 5638 5640 5643 5646 5648 5651 5654 5656 5659 5663 5667 5671 5674 5677 5680 5682 5685 5687 5689 5691 5693 5695 5697 5699 5700 5702 5703 5705 5705 5706 5707 5708 5709 5709 5709 5710
5612 5614 5616 5617 5620 5622 5624 5627 5629 5632 5634 5637 5640 5643 5645 5648 5652 5656 5659 5663 5666 5669 5672 5674 5677 5679 5681 5683 5685 5686 5688 5690 5691 5693 5694 5695 5696 5696 5697 5698 5698 5699 5699
5602 5603 5605 5607 5609 5611 5613 5615 5618 5620 5623 5626 5629 5632 5634 5637 5641 5644 5648 5651 5654 5657 5660 5663 5665 5668 5670 5672 5674 5675 5677 5679 5680 5681 5683 5684 5684 5685 5686 5686 5687 5688 5688
5592 5593 5595 5596 5598 5599 5601 5603 5606 5609 5612 5615 5617 5620 5623 5626 5629 5633 5637 5640 5643 5646 5648 5651 5653 5656 5658 5660 5662 5664 5666 5667 5668 5669 5671 5672 5673 5673 5674 5675 5675 5676 5677
5582 5583 5584 5586 5587 5589 5590 5592 5595 5597 5600 5603 5606 5609 5612 5615 5619 5622 5626 5629 5632 5634 5636 5639 5641 5643 5646 5648 5650 5652 5653 5655 5656 5657 5658 5659 5660 5661 5661 5662 5662 5663 5663
5572 5573 5574 5575 5576 5578 5580 5582 5584 5586 5589 5592 5594 5597 5600 5604 5607 5611 5615 5617 5620 5622 5625 5627 5629 5631 5633 5635 5637 5639 5641 5642 5643 5644 5645 5646 5647 5648 5648 5649 5649 5649 5650
5562 5563 5564 5565 5566 5568 5569 5571 5573 5576 5578 5581 5583 5586 5589 5592 5596 5599 5602 5605 5608 5610 5612 5614 5617 5619 5621 5622 5624 5626 5628 5629 5630 5631 5632 5633 5634 5634 5635 5635 5635 5636 5636
5552 5552 5553 5554 5555 5557 5559 5561 5563 5565 5567 5570 5572 5575 5578 5581 5584 5587 5590 5593 5595 5598 5600 5602 5604 5606 5608 5610 5611 5613 5614 5616 5617 5618 5618 5619 5620 5621 5621 5621 5621 5621 5622
5542 5542 5543 5543 5545 5546 5548 5550 5552 5555 5557 5559 5562 5564 5567 5570 5572 5575 5578 5580 5583 5585 5587 5589 5591 5593 5594 5596 5598 5599 5601 5602 5603 5604 5604 5605 5606 5606 5606 5607 5607 5607 5607
5532 5532 5532 5533 5534 5535 5537 5539 5542 5544 5546 5549 5551 5554 5556 5559 5561 5563 5565 5568 5570 5572 5574 5576 5578 5580 5581 5583 5584 5585 5587 5588 5589 5590 5590 5591 5591 5591 5591 5592 5592 5592 5593
5522 5522 5522 5523 5523 5525 5526 5529 5531 5533 5535 5537 5540 5542 5545 5547 5549 5551 5553 5555 5557 5559 5561 5563 5565 5566 5568 5569 5570 5571 5572 5574 5574 5575 5576 5576 5576 5576 5576 5577 5577 5577 5577
5513 5513 5513 5513 5514 5515 5516 5518 5521 5523 5525 5526 5528 5530 5533 5535 5537 5539 5541 5543 5544 5546 5548 5550 5551 5552 5554 5555 5556 5557 5558 5559 5560 5560 5561 5561 5561 5561 5561 5562 5562 5562 5562
5504 5504 5504 5504 5504 5505 5506 5508 5510 5512 5514 5515 5517 5519 5521 5523 5525 5527 5529 5530 5532 5534 5535 5537 5538 5539 5540 5541 5541 5542 5543 5544 5545 5545 5545 5545 5546 5546 5546 5546 5547 5547 5546
5495 5495 5495 5495 5495 5496 5497 5498 5500 5502 5503 5505 5507 5508 5510 5512 5514 5515 5517 5518 5520 5521 5522 5523 5524 5525 5526 5526 5527 5528 5529 5530 5530 5530 5530 5530 5530 5530 5530 5530 5530 5530 5530
5487 5486 5486 5486 5487 5487 5488 5489 5490 5492 5493 5494 5495 5497 5498 5500 5502 5503 5505 5506 5508 5509 5510 5511 5511 5512 5512 5512 5513 5513 5514 5514 5515 5515 5515 5515 5515 5514 5514 5514 5514 5514 5514
5478 5478 5478 5477 5478 5478 5478 5479 5480 5482 5483 5484 5485 5486 5487 5489 5490 5491 5493 5494 5495 5496 5496 5497 5497 5498 5498 5498 5498 5499 5499 5499 5500 5500 5500 5500 5499 5499 5499 5499 5499 5498 5498
5470 5470 5469 5469 5468 5469 5469 5470 5470 5471 5472 5473 5474 5475 5476 5477 5478 5479 5480 5481 5482 5483 5483 5484 5484 5485 5485 5485 5485 5485 5485 5485 5485 5485 5485 5485 5485 5484 5484 5484 5484 5483 5483
5462 5461 5460 5460 5459 5459 5459 5460 5460 5461 5462 5462 5463 5464 5465 5466 5467 5467 5468 5469 5469 5470 5470 5471 5471 5471 5471 5471 5471 5471 5471 5470 5470 5470 5470 5470 5470 5470 5470 5469 5469 5468 5468
5453 5453 5452 5451 5451 5450 5450 5450 5451 5451 5451 5452 5452 5453 5454 5455 5455 5455 5456 5456 5457 5457 5458 5458 5458 5458 5458 5458 5458 5457 5457 5457 5456 5456 5456 5455 5455 5455 5455 5454 5454 5454 5453
5445 5444 5443 5442 5442 5441 5441 5441 5441 5441 5441 5441 5441 5442 5443 5443 5443 5444 5444 5444 5444 5445 5445 5445 5445 5445 5445 5445 5444 5444 5444 5443 5442 5442 5442 5441 5441 5440 5440 5440 5440 5439 5439